| time (UTC) | temp F | wind direction | speed MPH | gust MPH | rain 1hr in | rain 24hr in | rain mn in | humidity % | barometer mb |
| 20260905222926 | 98 | 74 | 1.0 | 4.0 | 0.00 | 0.00 | 0.00 | 35 | 1012.6 |
| 20260905221927 | 98 | 355 | 2.0 | 4.0 | 0.00 | 0.00 | 0.00 | 36 | 1012.5 |
| 20260905220927 | 98 | 65 | 1.0 | 6.0 | 0.00 | 0.00 | 0.00 | 35 | 1012.7 |
| 20260905215932 | 99 | 54 | 2.0 | 9.0 | 0.00 | 0.00 | 0.00 | 35 | 1012.7 |
| 20260905214927 | 99 | 116 | 2.0 | 6.0 | 0.00 | 0.00 | 0.00 | 36 | 1012.8 |
| 20260905213926 | 98 | 171 | 1.0 | 5.0 | 0.00 | 0.00 | 0.00 | 36 | 1012.8 |
| 20260905213404 | 97 | 355 | 0.0 | 2.0 | 0.00 | 0.00 | 0.00 | 37 | 1012.9 |
| 20260905211927 | 98 | 9 | 1.0 | 2.0 | 0.00 | 0.00 | 0.00 | 36 | 1013.1 |
| 20260905211417 | 98 | 119 | 1.0 | 4.0 | 0.00 | 0.00 | 0.00 | 35 | 1013.3 |
| 20260905205925 | 99 | 128 | 2.0 | 6.0 | 0.00 | 0.00 | 0.00 | 35 | 1013.4 |
| 20260905204925 | 100 | 79 | 2.0 | 7.0 | 0.00 | 0.00 | 0.00 | 34 | 1013.6 |
| 20260905203925 | 101 | 0 | 3.0 | 10.0 | 0.00 | 0.00 | 0.00 | 33 | 1013.6 |
| 20260905202924 | 101 | 171 | 4.0 | 11.0 | 0.00 | 0.00 | 0.00 | 34 | 1013.8 |
| 20260905201924 | 100 | 188 | 3.0 | 9.0 | 0.00 | 0.00 | 0.00 | 35 | 1013.9 |
| 20260905200927 | 100 | 177 | 5.0 | 9.0 | 0.00 | 0.00 | 0.00 | 34 | 1014.1 |
| 20260905200404 | 100 | 213 | 3.0 | 9.0 | 0.00 | 0.00 | 0.00 | 35 | 1014.3 |
| 20260905194921 | 100 | 82 | 5.0 | 11.0 | 0.00 | 0.00 | 0.00 | 34 | 1014.4 |
| 20260905193923 | 100 | 257 | 3.0 | 8.0 | 0.00 | 0.00 | 0.00 | 35 | 1014.4 |
| 20260905192924 | 100 | 175 | 2.0 | 5.0 | 0.00 | 0.00 | 0.00 | 35 | 1014.6 |
| 20260905192357 | 100 | 355 | 2.0 | 9.0 | 0.00 | 0.00 | 0.00 | 36 | 1014.8 |
| 20260905191406 | 98 | 101 | 3.0 | 8.0 | 0.00 | 0.00 | 0.00 | 38 | 1014.9 |
| 20260905185922 | 97 | 319 | 3.0 | 7.0 | 0.00 | 0.00 | 0.00 | 40 | 1015.1 |
| 20260905184922 | 98 | 168 | 4.0 | 10.0 | 0.00 | 0.00 | 0.00 | 39 | 1015.0 |
| 20260905183921 | 98 | 40 | 3.0 | 8.0 | 0.00 | 0.00 | 0.00 | 39 | 1015.2 |
| 20260905182923 | 98 | 187 | 4.0 | 9.0 | 0.00 | 0.00 | 0.00 | 40 | 1015.3 |
| 20260905181919 | 96 | 126 | 2.0 | 9.0 | 0.00 | 0.00 | 0.00 | 40 | 1015.5 |
| 20260905180915 | 99 | 37 | 3.0 | 10.0 | 0.00 | 0.00 | 0.00 | 38 | 1015.6 |
| 20260905175915 | 98 | 5 | 2.0 | 8.0 | 0.00 | 0.00 | 0.00 | 39 | 1015.9 |
| 20260905174916 | 97 | 49 | 3.0 | 6.0 | 0.00 | 0.00 | 0.00 | 40 | 1016.0 |
| 20260905173915 | 97 | 82 | 4.0 | 10.0 | 0.00 | 0.00 | 0.00 | 40 | 1016.2 |
| 20260905172915 | 98 | 355 | 2.0 | 6.0 | 0.00 | 0.00 | 0.00 | 40 | 1016.3 |
| 20260905171919 | 98 | 314 | 4.0 | 9.0 | 0.00 | 0.00 | 0.00 | 41 | 1016.5 |
| 20260905170913 | 97 | 261 | 2.0 | 5.0 | 0.00 | 0.00 | 0.00 | 43 | 1016.4 |
| 20260905170405 | 96 | 90 | 4.0 | 9.0 | 0.00 | 0.00 | 0.00 | 43 | 1016.5 |
| 20260905164912 | 96 | 171 | 3.0 | 6.0 | 0.00 | 0.00 | 0.00 | 45 | 1016.7 |
| 20260905163909 | 94 | 301 | 1.0 | 4.0 | 0.00 | 0.00 | 0.00 | 46 | 1016.8 |
| 20260905162909 | 93 | 214 | 3.0 | 6.0 | 0.00 | 0.00 | 0.00 | 48 | 1016.7 |
| 20260905161906 | 93 | 152 | 3.0 | 7.0 | 0.00 | 0.00 | 0.00 | 47 | 1016.8 |
| 20260905160906 | 94 | 260 | 4.0 | 8.0 | 0.00 | 0.00 | 0.00 | 46 | 1016.8 |
| 20260905155907 | 93 | 296 | 2.0 | 7.0 | 0.00 | 0.00 | 0.00 | 48 | 1016.8 |
| 20260905153901 | 92 | 43 | 3.0 | 5.0 | 0.00 | 0.00 | 0.00 | 49 | 1016.8 |
| 20260905152903 | 91 | 187 | 2.0 | 6.0 | 0.00 | 0.00 | 0.00 | 52 | 1016.8 |
| 20260905151901 | 90 | 290 | 3.0 | 7.0 | 0.00 | 0.00 | 0.00 | 54 | 1016.9 |
| 20260905151344 | 89 | 172 | 2.0 | 6.0 | 0.00 | 0.00 | 0.00 | 55 | 1016.8 |
| 20260905150346 | 89 | 206 | 3.0 | 6.0 | 0.00 | 0.00 | 0.00 | 58 | 1016.8 |
| 20260905144901 | 88 | 221 | 3.0 | 5.0 | 0.00 | 0.00 | 0.00 | 57 | 1016.6 |
| 20260905143902 | 87 | 166 | 1.0 | 4.0 | 0.00 | 0.00 | 0.00 | 60 | 1016.6 |
| 20260905142903 | 86 | 129 | 1.0 | 4.0 | 0.00 | 0.00 | 0.00 | 63 | 1016.7 |
| 20260905141902 | 85 | 142 | 1.0 | 2.0 | 0.00 | 0.00 | 0.00 | 64 | 1016.5 |
| 20260905140902 | 84 | 135 | 1.0 | 3.0 | 0.00 | 0.00 | 0.00 | 67 | 1016.6 |
| 20260905135901 | 82 | 126 | 1.0 | 3.0 | 0.00 | 0.00 | 0.00 | 71 | 1016.7 |
| 20260905134901 | 80 | 53 | 0.0 | 3.0 | 0.00 | 0.00 | 0.00 | 73 | 1016.7 |
| 20260905134340 | 79 | 64 | 0.0 | 2.0 | 0.00 | 0.00 | 0.00 | 75 | 1016.6 |
| 20260905132900 | 78 | 65 | 0.0 | 1.0 | 0.00 | 0.00 | 0.00 | 77 | 1016.6 |
| 20260905131902 | 77 | 98 | 0.0 | 1.0 | 0.00 | 0.00 | 0.00 | 79 | 1016.6 |
| 20260905130901 | 77 | 98 | 0.0 | 1.0 | 0.00 | 0.00 | 0.00 | 79 | 1016.7 |
| 20260905125903 | 76 | 98 | 0.0 | 1.0 | 0.00 | 0.00 | 0.00 | 80 | 1016.5 |
| 20260905125351 | 75 | 44 | 0.0 | 2.0 | 0.00 | 0.00 | 0.00 | 81 | 1016.5 |
| 20260905123902 | 75 | 84 | 0.0 | 0.0 | 0.00 | 0.00 | 0.00 | 83 | 1016.4 |
| 20260905122902 | 74 | 84 | 0.0 | 0.0 | 0.00 | 0.00 | 0.00 | 83 | 1016.3 |
| 20260905121901 | 74 | 84 | 0.0 | 0.0 | 0.00 | 0.00 | 0.00 | 84 | 1016.3 |
| 20260905120902 | 74 | 90 | 0.0 | 0.0 | 0.00 | 0.00 | 0.00 | 84 | 1016.2 |
| 20260905115904 | 73 | 90 | 0.0 | 1.0 | 0.00 | 0.00 | 0.00 | 85 | 1016.1 |
| 20260905114903 | 73 | 252 | 0.0 | 1.0 | 0.00 | 0.00 | 0.00 | 84 | 1016.0 |
| 20260905112901 | 74 | 252 | 0.0 | 0.0 | 0.00 | 0.00 | 0.00 | 83 | 1015.9 |
| 20260905111903 | 74 | 252 | 0.0 | 1.0 | 0.00 | 0.00 | 0.00 | 83 | 1015.9 |
| 20260905110902 | 74 | 151 | 0.0 | 0.0 | 0.00 | 0.00 | 0.00 | 82 | 1015.7 |
| 20260905105902 | 74 | 151 | 0.0 | 0.0 | 0.00 | 0.00 | 0.00 | 82 | 1015.7 |
| 20260905104902 | 75 | 151 | 0.0 | 0.0 | 0.00 | 0.00 | 0.00 | 80 | 1015.5 |
| 20260905103902 | 76 | 151 | 0.0 | 0.0 | 0.00 | 0.00 | 0.00 | 80 | 1015.4 |
| 20260905102902 | 76 | 151 | 0.0 | 1.0 | 0.00 | 0.00 | 0.00 | 79 | 1015.5 |
| 20260905102341 | 76 | 151 | 0.0 | 1.0 | 0.00 | 0.00 | 0.00 | 79 | 1015.4 |
| 20260905100906 | 76 | 151 | 0.0 | 0.0 | 0.00 | 0.00 | 0.00 | 79 | 1015.4 |
| 20260905095900 | 76 | 151 | 0.0 | 1.0 | 0.00 | 0.00 | 0.00 | 80 | 1015.4 |
| 20260905095332 | 76 | 151 | 0.0 | 1.0 | 0.00 | 0.00 | 0.00 | 80 | 1015.4 |
| 20260905093858 | 76 | 151 | 0.0 | 1.0 | 0.00 | 0.00 | 0.00 | 79 | 1015.3 |
| 20260905092857 | 76 | 151 | 0.0 | 0.0 | 0.00 | 0.00 | 0.00 | 79 | 1015.4 |
| 20260905091856 | 76 | 151 | 0.0 | 1.0 | 0.00 | 0.00 | 0.00 | 79 | 1015.2 |
| 20260905090857 | 76 | 151 | 0.0 | 0.0 | 0.00 | 0.00 | 0.00 | 78 | 1015.3 |
| 20260905085856 | 76 | 151 | 0.0 | 0.0 | 0.00 | 0.00 | 0.00 | 78 | 1015.3 |
| 20260905084857 | 76 | 151 | 0.0 | 0.0 | 0.00 | 0.00 | 0.00 | 78 | 1015.3 |
| 20260905083857 | 76 | 151 | 0.0 | 0.0 | 0.00 | 0.00 | 0.00 | 77 | 1015.1 |
| 20260905082857 | 77 | 151 | 0.0 | 0.0 | 0.00 | 0.00 | 0.00 | 76 | 1015.1 |
| 20260905081858 | 77 | 151 | 0.0 | 0.0 | 0.00 | 0.00 | 0.00 | 75 | 1015.3 |
| 20260905080857 | 77 | 151 | 0.0 | 0.0 | 0.00 | 0.00 | 0.00 | 75 | 1015.1 |
| 20260905075858 | 78 | 151 | 0.0 | 0.0 | 0.00 | 0.00 | 0.00 | 74 | 1015.2 |
| 20260905074856 | 79 | 151 | 0.0 | 1.0 | 0.00 | 0.00 | 0.00 | 72 | 1015.2 |
| 20260905073858 | 80 | 151 | 0.0 | 1.0 | 0.00 | 0.00 | 0.00 | 68 | 1015.2 |
| 20260905072857 | 81 | 151 | 0.0 | 0.0 | 0.00 | 0.00 | 0.00 | 68 | 1015.2 |
| 20260905071859 | 82 | 151 | 0.0 | 0.0 | 0.00 | 0.00 | 0.00 | 66 | 1015.4 |
| 20260905070858 | 82 | 151 | 0.0 | 0.0 | 0.00 | 0.00 | 0.00 | 65 | 1015.4 |
| 20260905065858 | 83 | 151 | 0.0 | 1.0 | 0.00 | 0.00 | 0.00 | 64 | 1015.5 |
| 20260905064855 | 83 | 151 | 1.0 | 4.0 | 0.00 | 0.00 | 0.00 | 64 | 1015.5 |
| 20260905063850 | 83 | 156 | 2.0 | 5.0 | 0.00 | 0.00 | 0.00 | 64 | 1015.6 |
| 20260905062852 | 83 | 158 | 2.0 | 3.0 | 0.00 | 0.00 | 0.00 | 65 | 1015.5 |
| 20260905061852 | 83 | 141 | 2.0 | 3.0 | 0.00 | 0.00 | 0.00 | 64 | 1015.5 |
| 20260905060852 | 83 | 146 | 2.0 | 3.0 | 0.00 | 0.00 | 0.00 | 64 | 1015.6 |
| 20260905054850 | 84 | 136 | 1.0 | 2.0 | 0.00 | 0.00 | 0.00 | 62 | 1015.5 |
| 20260905054331 | 85 | 139 | 3.0 | 6.0 | 0.00 | 0.00 | 0.00 | 61 | 1015.5 |
| 20260905052851 | 85 | 130 | 3.0 | 4.0 | 0.00 | 0.00 | 0.00 | 61 | 1015.5 |
| 20260905051849 | 85 | 128 | 2.0 | 4.0 | 0.00 | 0.00 | 0.00 | 60 | 1015.5 |
| 20260905050846 | 85 | 144 | 2.0 | 4.0 | 0.00 | 0.00 | 0.00 | 60 | 1015.5 |
| 20260905050335 | 86 | 135 | 3.0 | 4.0 | 0.00 | 0.00 | 0.00 | 59 | 1015.5 |
| 20260905044845 | 86 | 128 | 2.0 | 6.0 | 0.00 | 0.00 | 0.00 | 58 | 1015.4 |
| 20260905043844 | 86 | 134 | 2.0 | 6.0 | 0.00 | 0.00 | 0.00 | 58 | 1015.5 |
| 20260905043330 | 86 | 145 | 3.0 | 6.0 | 0.00 | 0.00 | 0.00 | 57 | 1015.4 |
| 20260905041842 | 86 | 134 | 3.0 | 6.0 | 0.00 | 0.00 | 0.00 | 57 | 1015.4 |
| 20260905040840 | 87 | 123 | 3.0 | 6.0 | 0.00 | 0.00 | 0.00 | 56 | 1015.3 |
| 20260905035843 | 87 | 130 | 3.0 | 6.0 | 0.00 | 0.00 | 0.00 | 56 | 1015.2 |
| 20260905034836 | 87 | 126 | 3.0 | 6.0 | 0.00 | 0.00 | 0.00 | 55 | 1015.4 |
| 20260905033836 | 87 | 121 | 4.0 | 7.0 | 0.00 | 0.00 | 0.00 | 55 | 1015.3 |
| 20260905032835 | 88 | 131 | 4.0 | 8.0 | 0.00 | 0.00 | 0.00 | 54 | 1015.2 |
| 20260905031836 | 88 | 163 | 4.0 | 7.0 | 0.00 | 0.00 | 0.00 | 53 | 1015.2 |
| 20260905031310 | 88 | 139 | 4.0 | 7.0 | 0.00 | 0.00 | 0.00 | 53 | 1015.2 |
| 20260905025836 | 88 | 146 | 3.0 | 6.0 | 0.00 | 0.00 | 0.00 | 53 | 1015.1 |
| 20260905024836 | 89 | 132 | 3.0 | 6.0 | 0.00 | 0.00 | 0.00 | 52 | 1015.1 |
| 20260905023836 | 89 | 138 | 3.0 | 4.0 | 0.00 | 0.00 | 0.00 | 52 | 1014.8 |
| 20260905022835 | 89 | 121 | 3.0 | 6.0 | 0.00 | 0.00 | 0.00 | 51 | 1014.7 |
| 20260905021832 | 89 | 123 | 3.0 | 6.0 | 0.00 | 0.00 | 0.00 | 51 | 1014.6 |
| 20260905021317 | 89 | 138 | 3.0 | 6.0 | 0.00 | 0.00 | 0.00 | 50 | 1014.3 |
| 20260905015830 | 89 | 139 | 3.0 | 5.0 | 0.00 | 0.00 | 0.00 | 50 | 1014.3 |
| 20260905015306 | 90 | 148 | 3.0 | 9.0 | 0.00 | 0.00 | 0.00 | 49 | 1014.1 |
| 20260905013830 | 90 | 144 | 2.0 | 3.0 | 0.00 | 0.00 | 0.00 | 48 | 1014.0 |
| 20260905013310 | 91 | 140 | 2.0 | 3.0 | 0.00 | 0.00 | 0.00 | 47 | 1013.9 |
| 20260905012313 | 91 | 132 | 2.0 | 3.0 | 0.00 | 0.00 | 0.00 | 47 | 1013.7 |
| 20260905010829 | 92 | 150 | 2.0 | 5.0 | 0.00 | 0.00 | 0.00 | 46 | 1013.6 |
| 20260905005830 | 92 | 140 | 3.0 | 5.0 | 0.00 | 0.00 | 0.00 | 45 | 1013.6 |
| 20260905004832 | 92 | 154 | 3.0 | 5.0 | 0.00 | 0.00 | 0.00 | 45 | 1013.6 |
| 20260905003829 | 93 | 140 | 3.0 | 5.0 | 0.00 | 0.00 | 0.00 | 44 | 1013.5 |
| 20260905003314 | 94 | 140 | 3.0 | 4.0 | 0.00 | 0.00 | 0.00 | 42 | 1013.5 |
| 20260905001831 | 94 | 138 | 4.0 | 6.0 | 0.00 | 0.00 | 0.00 | 41 | 1013.4 |
| 20260905000830 | 95 | 141 | 4.0 | 8.0 | 0.00 | 0.00 | 0.00 | 41 | 1013.4 |
| 20260904235829 | 95 | 123 | 4.0 | 8.0 | 0.00 | 0.00 | 0.00 | 41 | 1013.4 |
| 20260904234829 | 96 | 125 | 4.0 | 8.0 | 0.00 | 0.00 | 0.00 | 38 | 1013.5 |
| 20260904233830 | 96 | 136 | 4.0 | 7.0 | 0.00 | 0.00 | 0.00 | 38 | 1013.5 |
| 20260904232829 | 96 | 178 | 4.0 | 9.0 | 0.00 | 0.00 | 0.00 | 39 | 1013.4 |
| 20260904232307 | 96 | 95 | 4.0 | 8.0 | 0.00 | 0.00 | 0.00 | 39 | 1013.4 |
| 20260904230834 | 97 | 132 | 4.0 | 9.0 | 0.00 | 0.00 | 0.00 | 38 | 1013.5 |
| 20260904225831 | 97 | 83 | 3.0 | 7.0 | 0.00 | 0.00 | 0.00 | 37 | 1013.4 |
| 20260904224830 | 97 | 150 | 4.0 | 7.0 | 0.00 | 0.00 | 0.00 | 39 | 1013.5 |